GFSNGP_850_spd_045.txt.gz
Wind_Speed
14 6 8 8 9 10 15 17 15 12 15 10 7 5 9 11 12 16 18 21 23 22 21 20 19 19 17 11 9 7 9 9 9 11 10 10 11 13 14 16 16 16 17 17
5 7 9 11 13 13 14 17 18 18 18 15 12 8 7 12 11 15 19 21 22 21 20 20 20 19 14 12 9 9 7 8 10 10 10 11 13 14 16 16 16 16 16 16
7 3 5 6 15 18 17 17 14 15 16 7 8 6 10 9 10 13 16 18 20 20 20 18 18 17 15 10 9 6 9 10 10 10 10 12 14 15 16 16 16 17 17 15
1 1 1 2 2 5 7 12 14 14 13 11 8 8 6 8 10 12 13 16 18 18 17 17 17 16 12 10 8 7 9 9 9 11 12 13 15 16 16 16 17 18 16 15
3 6 9 12 5 2 2 5 6 8 9 4 3 6 16 8 6 9 12 13 15 16 16 17 16 13 9 8 6 7 9 10 10 12 13 15 16 16 17 18 20 18 18 14
3 3 4 3 4 2 1 5 8 7 4 1 3 4 5 2 2 6 9 12 13 14 15 15 11 8 4 5 9 9 9 10 11 13 14 16 16 16 17 17 18 18 18 17
5 3 6 4 3 2 5 3 7 7 5 4 6 7 7 5 5 8 10 11 13 14 14 12 9 3 2 7 9 9 10 10 13 14 16 16 15 16 18 18 22 21 23 21
3 3 5 7 6 1 5 6 5 7 7 8 8 7 6 3 5 7 10 11 12 13 12 6 3 0 4 7 10 10 12 13 14 16 15 15 16 17 17 19 19 18 20 18
6 1 5 5 4 3 7 9 10 11 11 11 11 9 5 3 6 8 10 10 10 9 7 4 1 7 9 9 10 13 14 14 15 14 14 15 16 18 19 17 18 19 17 16
1 3 3 1 3 4 7 8 10 9 10 11 13 11 4 5 9 11 11 9 8 6 4 3 4 10 12 13 15 13 14 14 14 14 15 16 15 16 19 17 19 18 17 15
5 8 3 7 5 8 10 9 8 6 7 6 4 3 8 10 11 11 12 9 7 3 2 7 11 14 12 11 13 13 14 15 15 15 15 16 17 18 20 21 21 20 18 14
1 5 4 7 8 9 6 7 6 5 8 11 10 11 15 15 15 12 9 6 3 3 6 11 11 11 12 12 12 14 16 15 15 16 16 17 18 21 21 24 23 24 22 24
2 4 3 4 10 10 11 11 12 13 13 15 15 16 17 16 10 7 4 2 4 8 10 11 13 13 14 15 17 18 18 19 19 16 17 20 25 23 24 22 24 24 23 22
3 2 6 9 7 10 12 13 14 17 18 18 18 15 11 9 6 1 5 7 8 10 12 13 14 15 15 16 17 20 21 22 22 19 20 22 25 26 25 24 26 25 22 23
6 9 12 12 11 13 13 15 17 18 16 13 10 8 4 2 3 5 6 8 10 12 13 14 16 18 18 21 23 24 23 22 22 25 27 27 24 23 26 27 26 27 22 21
8 10 11 14 14 14 15 13 12 10 8 6 4 4 5 5 6 7 9 10 15 17 18 20 23 25 26 23 24 26 26 29 30 30 30 28 23 24 24 26 27 27 26 21
14 12 14 15 14 13 11 9 8 6 5 5 5 5 6 8 9 9 12 15 19 21 24 27 31 29 29 29 25 27 30 31 27 29 35 30 27 27 24 25 27 27 26 26
12 17 15 14 12 9 6 6 5 5 4 4 4 5 7 10 13 17 20 24 27 31 31 31 24 24 28 28 28 30 31 30 30 30 29 29 29 29 29 29 26 26 26 25
17 15 12 9 8 7 6 5 3 3 2 4 6 9 13 16 20 23 27 30 32 31 24 24 27 30 28 29 30 31 29 30 30 30 27 25 27 27 28 29 27 26 24 23
13 11 10 8 6 5 3 3 5 2 4 8 12 16 20 22 24 26 27 29 21 21 28 27 30 31 30 31 29 30 29 26 27 26 24 24 27 27 27 26 26 24 23 23
10 8 6 5 5 4 4 3 2 5 9 13 16 18 20 24 24 26 24 24 22 23 27 31 29 30 30 30 31 30 31 27 25 21 22 23 26 26 25 23 22 22 22 22
8 7 6 5 3 2 1 2 5 9 11 14 17 20 23 23 24 21 20 21 25 32 29 31 31 30 32 31 33 31 28 29 21 19 20 21 21 23 24 24 24 23 24 23
7 5 4 4 4 2 3 6 10 13 15 18 20 22 22 21 20 24 27 23 28 29 30 31 30 30 29 28 27 23 19 18 21 20 18 18 17 16 17 18 20 20 20 22
7 6 4 4 3 3 3 8 12 12 17 17 17 20 22 23 22 19 22 28 28 29 26 21 29 33 32 23 20 20 19 14 16 17 14 13 12 13 14 15 16 16 16 16
6 4 3 1 1 3 7 11 12 11 15 16 17 17 19 18 20 23 24 23 25 24 23 21 26 25 21 20 18 18 14 14 16 14 12 12 13 13 13 15 16 16 16 15
5 4 1 2 3 6 9 12 13 13 16 15 16 17 17 18 18 18 19 20 21 21 21 22 24 25 22 20 19 18 17 15 17 16 15 15 16 16 16 17 17 17 17 16
4 2 1 2 6 9 13 15 14 15 14 15 17 16 17 17 17 17 18 19 20 20 20 21 21 23 23 22 20 19 18 17 18 19 17 17 17 17 18 19 19 18 18 18

GFSNGP_850_spd_048.txt.gz
Wind_Speed
14 14 12 8 13 7 10 10 10 11 15 12 9 5 4 6 9 10 12 16 18 16 16 16 17 18 18 19 18 14 8 7 8 8 11 15 13 12 15 17 17 18 18 17
8 10 13 10 14 15 14 15 15 14 14 11 10 11 11 9 9 8 9 10 12 13 14 16 18 19 18 14 8 8 9 9 9 12 11 10 11 16 17 15 18 19 17 22
2 6 7 5 10 15 16 15 11 12 10 8 9 5 9 4 7 3 8 9 10 14 15 16 17 18 16 12 10 11 7 6 7 10 9 10 15 15 17 19 19 17 21 24
1 1 1 9 3 5 5 8 9 10 10 11 14 12 8 6 7 7 3 7 6 8 10 12 13 13 12 12 12 8 5 4 8 8 11 18 15 18 19 19 18 22 26 27
2 4 7 12 2 2 1 3 11 9 9 10 11 9 17 7 6 7 7 4 4 7 10 11 11 12 14 10 5 3 5 9 7 13 14 14 16 18 20 18 20 25 26 23
3 3 5 1 6 3 2 2 8 9 7 7 5 3 7 9 5 6 3 2 5 9 11 12 11 9 8 6 4 3 7 7 14 14 14 15 17 20 20 19 20 24 25 26
3 2 5 3 6 1 3 3 7 8 10 10 7 5 7 10 5 4 3 6 9 11 13 13 12 10 6 1 5 2 8 14 16 15 15 18 19 20 19 19 22 26 27 26
2 2 6 7 6 2 5 6 9 8 9 7 6 9 7 8 3 5 8 13 13 13 14 11 8 8 4 1 5 11 13 18 17 16 16 17 18 20 19 20 25 27 25 22
7 4 6 7 10 7 6 7 9 8 9 9 9 9 5 2 6 9 12 12 14 13 13 10 5 8 4 4 8 14 19 19 17 17 17 16 17 19 20 23 26 24 21 22
2 4 9 8 13 10 8 7 7 7 7 8 8 7 4 8 12 14 13 13 10 7 6 6 2 8 7 9 15 16 16 16 16 17 18 20 20 16 18 21 25 25 24 23
5 3 13 13 11 7 6 6 6 7 10 9 4 10 14 16 16 14 10 8 5 2 2 4 6 8 10 11 15 18 15 18 19 19 20 21 20 20 21 23 24 25 27 25
1 6 7 11 8 8 9 10 10 11 12 15 14 16 15 15 12 9 2 1 4 5 7 8 10 12 13 13 14 17 20 21 22 22 24 24 21 25 25 25 21 23 25 26
6 6 12 14 13 13 14 13 11 11 11 12 12 10 9 8 7 6 5 5 5 7 10 11 13 14 15 16 19 21 26 28 27 27 25 23 23 26 26 29 25 25 25 26
5 7 9 9 11 12 12 13 14 16 15 16 16 15 13 10 8 5 4 5 7 10 11 13 14 15 15 16 19 23 27 30 30 30 29 25 26 26 28 31 30 27 24 25
10 12 18 16 15 14 14 14 16 15 14 12 11 10 7 6 5 5 6 7 8 10 11 13 17 20 23 26 28 26 27 29 31 33 32 32 32 33 36 31 27 29 27 26
12 12 14 15 15 15 15 13 13 11 11 10 8 7 6 4 4 6 6 11 15 18 21 24 27 29 28 24 26 27 28 30 30 32 34 33 34 30 35 27 28 27 27 29
15 14 15 16 16 14 13 12 12 11 9 5 5 5 6 7 6 9 12 16 21 25 28 29 26 21 23 24 27 31 34 35 36 36 33 29 32 30 27 32 30 30 31 29
11 15 14 16 16 12 11 9 8 5 5 6 5 6 7 10 14 17 21 25 27 28 24 17 22 29 32 33 30 30 32 35 35 35 33 32 33 30 28 27 28 29 29 32
19 19 17 14 12 12 10 8 6 6 5 4 5 8 12 15 18 21 24 26 25 23 20 27 29 31 34 28 29 31 32 35 36 36 34 25 28 28 25 24 26 27 27 25
18 15 14 14 12 9 9 10 7 3 3 5 9 12 14 18 21 22 23 20 17 20 26 30 34 33 31 28 31 34 34 35 36 35 34 27 26 19 19 22 24 24 22 20
15 13 11 10 10 8 8 7 3 2 6 10 12 15 18 20 20 20 20 20 17 26 32 35 32 28 29 32 33 33 29 30 32 32 30 22 13 15 20 22 21 22 21 21
12 11 10 9 7 7 5 3 3 5 8 11 15 17 19 18 19 18 16 17 27 31 31 29 27 28 31 35 33 27 26 27 26 23 21 19 21 20 20 19 17 19 19 20
12 11 9 8 7 4 2 2 6 9 13 15 18 20 20 19 19 22 21 23 26 29 28 23 28 31 29 24 24 23 22 20 19 18 18 18 15 12 13 13 14 14 15 15
10 9 8 6 4 4 2 5 7 8 12 11 13 18 20 20 20 16 19 23 24 23 23 22 27 27 27 25 23 23 22 19 22 22 19 15 13 14 12 13 16 15 14 13
9 8 6 5 5 2 2 6 5 7 11 12 14 16 17 16 18 20 20 20 22 21 21 22 23 27 27 25 23 23 22 20 22 23 20 18 18 17 17 18 18 17 16 16
8 5 4 5 3 2 5 7 8 10 13 13 15 16 15 17 18 18 18 19 20 21 22 22 22 24 25 25 23 22 22 22 22 22 21 20 19 18 19 19 19 18 17 17
8 7 4 1 3 5 8 10 11 13 13 16 18 13 12 16 18 18 19 18 20 21 22 22 22 22 22 23 22 21 20 21 21 20 21 21 20 20 20 19 19 18 19 17

GFSNGP_850_spd_054.txt.gz
Wind_Speed
5 3 3 1 0 1 4 4 5 7 6 9 4 8 16 13 3 6 24 30 33 34 34 36 35 32 32 31 29 30 28 26 22 21 14 12 12 13 10 13 12 24 27 25
3 3 3 3 3 4 5 4 4 4 5 6 6 13 15 11 16 15 9 6 23 29 28 29 32 32 31 28 27 27 26 25 21 15 16 13 11 10 6 14 25 23 20 23
4 3 3 5 6 6 5 3 5 5 4 2 7 11 13 15 14 13 10 8 7 8 20 24 29 31 28 28 28 26 23 18 15 15 13 5 3 8 21 21 19 19 24 23
3 3 2 7 5 3 9 4 6 9 5 11 16 22 19 16 17 16 13 12 13 16 23 25 26 27 29 27 24 21 18 15 12 10 5 4 8 14 17 19 19 23 22 24
4 3 4 5 4 6 5 1 4 7 7 16 24 24 17 13 12 11 8 10 11 16 20 23 23 27 27 25 21 18 15 13 10 1 16 8 12 14 17 19 19 21 25 26
3 4 7 7 3 8 6 1 3 9 6 9 6 3 1 14 11 14 12 13 15 20 21 25 26 26 25 22 19 16 12 2 9 16 9 8 13 16 18 20 23 23 25 27
2 3 7 7 7 5 6 6 10 15 11 6 4 8 18 16 15 17 20 23 24 25 25 24 22 20 17 13 8 0 11 19 7 11 13 15 18 20 21 23 23 23 26 26
3 3 6 6 4 7 6 15 19 16 14 14 19 22 21 18 20 21 21 23 21 22 21 17 12 6 5 1 9 18 11 9 12 13 18 19 18 20 20 21 24 26 28 28
8 5 3 3 10 22 24 23 15 15 12 14 20 22 22 22 22 22 21 20 16 14 13 10 4 1 3 6 3 5 7 11 14 16 17 17 19 21 23 24 26 28 27 29
6 2 3 19 21 22 19 17 15 12 9 7 19 22 23 23 23 21 18 16 12 8 6 6 5 4 4 6 8 11 14 15 16 18 20 20 22 25 28 29 31 31 32 31
4 3 12 11 18 22 20 16 13 11 9 14 18 23 24 24 21 18 14 12 12 12 10 8 6 8 10 10 11 13 16 18 21 23 26 29 31 32 31 30 29 31 31 31
5 20 8 10 18 21 19 16 14 12 17 17 18 25 23 21 16 15 15 12 10 9 7 5 4 5 6 9 12 15 18 21 24 27 29 30 31 34 33 33 33 34 34 33
10 29 19 26 21 16 16 16 15 16 17 22 21 20 18 21 19 16 13 10 8 6 3 2 4 7 10 14 17 20 24 26 28 28 30 31 32 33 37 41 36 35 33 36
27 31 24 25 15 17 17 18 19 22 22 23 24 22 23 20 17 14 12 8 3 2 4 6 10 13 16 18 20 21 23 25 29 32 33 35 36 36 35 36 39 41 38 31
23 5 22 24 23 21 21 25 29 29 25 23 20 20 18 17 15 12 7 2 2 6 8 10 12 14 17 21 24 28 30 31 31 32 33 33 33 35 36 37 36 35 33 30
19 22 27 26 25 24 27 28 28 26 22 20 18 15 13 10 8 5 2 3 6 8 10 11 14 18 22 26 29 30 30 30 31 33 34 34 33 34 36 38 39 34 32 30
31 24 27 27 24 24 27 23 24 22 19 16 14 13 11 9 6 2 2 5 7 9 11 15 18 22 26 28 28 29 30 31 30 29 26 28 29 31 34 37 36 37 35 26
10 23 21 28 31 28 25 23 20 17 17 16 14 11 8 5 3 3 5 7 8 10 13 17 22 25 25 25 26 26 26 26 26 25 23 22 25 28 25 26 27 27 26 24
21 26 28 28 27 27 24 21 18 16 16 13 10 7 4 2 3 5 7 9 11 14 18 22 24 23 23 22 22 23 24 24 24 24 23 24 25 23 25 27 28 25 21 16
27 28 28 26 21 20 21 18 17 16 14 10 6 4 2 2 5 7 10 12 13 16 19 21 20 21 21 21 21 21 22 22 22 23 24 24 23 23 21 18 20 22 22 20
28 26 25 23 20 18 16 16 15 13 11 7 3 2 2 5 7 8 9 12 15 17 18 17 19 20 21 21 21 21 21 21 22 23 23 23 22 21 21 21 22 22 23 22
27 23 20 19 20 19 16 14 11 9 7 4 1 2 4 6 9 11 13 13 15 16 17 18 19 20 22 22 21 21 21 21 21 22 22 22 22 22 22 23 24 24 22 21
19 17 18 18 17 16 15 11 9 6 3 1 3 5 8 9 10 11 12 14 15 16 17 19 20 21 22 22 21 21 21 20 21 21 22 21 21 22 22 23 23 23 22 21
20 19 18 16 16 15 13 10 6 3 2 4 6 8 9 9 11 12 13 14 15 16 18 20 21 22 22 22 22 21 20 20 20 20 21 21 21 21 21 22 22 22 21 21
18 17 16 16 15 12 10 8 6 3 5 7 7 10 11 11 12 12 14 16 17 19 20 21 21 22 21 21 21 21 20 20 20 21 21 21 21 22 23 22 21 22 22 21
19 19 17 14 11 9 8 8 8 8 8 8 9 10 11 12 12 13 15 18 19 21 21 20 21 21 20 20 20 20 20 20 20 21 21 20 21 22 23 22 22 22 22 22
17 17 17 15 10 7 6 6 7 7 8 9 10 12 12 12 13 15 17 20 21 21 19 19 19 19 19 19 19 19 20 20 20 20 20 21 22 23 23 23 22 23 24 24

GFSNGP_850_spd_060.txt.gz
Wind_Speed
5 4 6 6 5 8 7 6 7 7 8 9 6 6 10 13 14 13 16 17 22 23 22 21 23 22 21 23 25 28 29 28 28 27 23 15 18 14 12 10 5 6 11 16
4 1 0 3 7 8 5 3 5 5 6 7 2 3 5 4 3 3 3 4 9 15 17 20 22 21 20 19 19 18 21 24 23 21 16 15 13 11 7 7 11 16 25 19
4 2 4 5 8 9 7 6 8 8 11 6 3 3 3 6 8 10 11 10 6 2 4 9 12 13 15 16 17 18 18 19 18 14 12 9 9 10 11 11 22 16 14 15
4 2 1 7 1 4 8 5 5 4 2 4 9 10 9 8 9 11 10 9 8 6 4 2 5 9 12 15 17 16 16 14 14 13 13 14 7 7 18 26 15 16 18 20
5 4 4 4 4 7 8 9 7 6 7 13 18 11 8 8 9 10 9 9 7 5 2 3 6 9 11 12 13 16 19 18 16 13 8 10 16 21 12 13 16 18 21 23
3 5 8 8 4 7 4 6 7 11 10 12 13 4 3 7 9 10 9 7 6 5 5 5 8 8 11 15 19 19 17 12 7 10 17 16 8 11 14 18 20 21 23 23
2 3 7 7 3 10 5 8 13 25 26 22 5 4 15 13 12 10 9 9 9 10 10 11 12 12 17 19 17 12 5 8 13 8 6 9 12 15 17 18 21 23 26 27
3 2 6 11 5 9 8 4 21 24 27 22 11 14 18 15 13 12 12 14 14 16 19 19 16 13 16 11 4 6 5 2 2 5 7 10 12 14 17 20 24 28 32 36
9 7 3 20 5 16 7 9 21 27 25 22 19 20 20 18 16 16 18 20 20 20 23 19 15 10 6 3 2 1 2 4 6 8 11 14 18 21 24 27 30 34 36 39
2 4 5 11 15 11 15 18 24 25 25 23 22 23 22 21 23 23 23 22 19 18 17 13 8 4 3 2 2 3 5 7 10 13 17 20 23 26 29 30 32 34 36 38
3 5 8 12 14 15 16 18 22 22 23 22 20 23 23 25 26 25 23 20 17 14 9 7 5 4 3 1 3 6 8 12 16 19 22 26 28 30 32 31 30 31 32 34
8 15 11 10 21 22 23 24 23 24 23 21 21 24 26 27 26 24 21 18 13 9 6 9 6 2 1 4 7 11 14 17 21 24 27 29 32 34 32 32 31 29 27 27
3 11 14 16 27 26 26 23 21 20 20 24 22 24 28 29 25 22 19 16 14 10 9 7 3 2 5 8 11 15 18 21 23 25 27 29 30 31 36 36 32 30 31 33
11 18 12 25 17 25 25 24 22 20 21 22 26 27 28 28 24 21 19 15 11 9 7 4 3 5 8 11 15 17 20 22 23 24 25 26 26 26 27 29 36 41 37 34
18 7 13 23 26 25 23 24 25 24 25 27 27 29 27 26 24 20 16 12 10 7 4 2 4 7 11 14 17 19 20 21 22 22 23 24 24 24 25 26 28 31 36 37
9 13 19 27 27 26 26 27 29 30 30 30 30 27 25 23 20 17 14 11 7 5 2 4 8 11 14 16 17 18 19 20 21 22 22 22 23 24 25 25 26 28 31 33
23 17 21 24 26 26 27 28 29 33 32 31 28 26 23 20 18 15 12 9 6 3 4 7 11 13 15 17 18 18 19 19 20 21 21 22 22 23 24 25 26 27 28 29
9 17 22 26 34 32 28 26 27 28 30 28 27 23 20 16 13 12 9 6 3 5 7 10 12 15 16 16 17 18 19 20 21 22 22 21 22 23 24 25 25 27 29 29
7 18 20 23 25 26 27 26 27 26 26 25 23 20 15 12 10 8 5 3 4 7 9 12 14 15 16 17 17 18 20 20 20 21 21 22 22 22 23 24 26 27 28 29
21 20 20 22 22 23 28 27 26 24 23 20 17 15 14 11 8 5 3 4 6 9 11 13 15 16 17 17 19 19 20 21 21 21 21 21 22 23 23 23 25 26 27 27
21 19 18 22 26 27 26 23 22 22 18 15 14 13 11 8 6 4 4 6 9 11 13 15 16 17 17 18 19 20 20 20 20 21 21 22 22 22 23 24 25 26 27 27
20 22 25 27 27 25 20 20 16 16 18 16 13 10 7 6 4 4 6 8 10 12 15 16 17 18 18 18 19 20 20 20 20 21 21 21 23 24 25 25 26 27 28 28
23 25 26 24 22 21 19 17 15 13 13 11 9 7 5 4 5 6 8 9 11 14 16 17 19 19 19 18 18 20 20 20 20 20 21 22 23 24 25 26 27 27 28 28
24 21 21 18 17 19 18 16 14 12 10 9 7 4 3 5 7 8 10 11 13 15 17 19 19 19 19 19 19 20 20 19 20 20 21 22 23 23 24 25 26 27 27 27
18 18 17 18 16 14 12 12 11 9 7 5 4 5 6 8 9 11 12 14 15 16 18 20 20 19 19 20 20 19 19 19 20 21 21 22 23 23 24 25 26 27 27 27
16 17 16 13 11 10 9 8 6 5 3 4 6 8 9 10 12 13 14 15 16 17 19 20 19 18 18 20 20 20 20 20 20 20 21 22 23 23 24 25 25 25 25 25
15 13 11 9 8 7 7 6 5 5 6 8 10 11 12 13 14 15 16 17 18 19 20 20 19 18 18 19 20 21 21 21 20 20 21 22 22 23 24 24 24 24 23 22

GFSNGP_850_spd_063.txt.gz
Wind_Speed
5 5 5 6 5 12 11 10 8 11 11 10 7 5 6 9 9 11 10 11 10 12 11 12 12 13 15 17 19 19 17 16 14 14 12 12 15 10 15 12 11 13 7 13
4 3 6 5 6 8 9 5 9 8 8 10 6 5 4 4 1 1 2 1 4 5 7 8 8 7 6 7 8 8 9 9 10 10 13 15 11 11 12 11 4 6 17 18
5 1 5 4 7 9 5 6 6 9 10 3 5 4 3 2 7 9 11 12 11 11 8 5 4 4 4 5 5 6 6 9 12 14 13 11 11 9 6 2 9 21 16 13
3 1 5 4 2 4 10 7 9 6 5 5 3 6 5 7 10 12 12 14 14 13 11 9 7 7 7 8 8 8 11 14 14 13 13 12 8 5 11 13 14 10 12 15
4 5 3 3 5 7 7 13 8 12 8 5 14 10 3 8 11 13 13 14 13 12 10 10 9 10 10 12 11 13 16 16 16 12 8 3 11 13 10 8 11 14 17 19
3 5 9 8 5 9 4 10 8 13 10 14 16 7 5 13 13 14 14 14 13 12 13 12 14 13 13 15 17 18 17 15 10 5 8 10 4 5 8 12 14 16 17 19
3 4 5 6 5 13 6 9 8 19 17 23 9 3 21 20 16 15 15 15 15 15 15 15 16 16 20 22 19 15 10 6 6 4 3 4 6 8 11 14 17 20 23 26
3 2 8 11 7 9 9 7 9 20 24 23 13 19 25 21 20 18 18 18 17 20 21 21 20 18 22 17 13 7 4 2 2 3 4 6 9 12 15 18 22 26 29 31
8 6 2 25 7 21 8 7 9 20 27 32 23 24 25 25 22 21 20 22 23 24 27 25 20 15 14 9 3 2 2 1 2 5 7 10 13 16 19 21 24 26 27 30
2 4 6 13 22 12 14 15 12 19 31 34 27 27 26 25 24 25 26 26 25 25 24 22 15 9 4 5 4 2 2 3 4 7 11 13 16 18 19 21 22 22 23 24
3 5 6 16 20 24 19 15 15 19 30 32 27 29 28 28 29 28 28 26 24 21 19 16 10 7 8 6 3 2 3 6 8 11 14 16 18 19 19 19 19 19 17 19
6 13 11 13 20 26 23 21 22 25 27 26 28 30 30 31 31 31 29 27 23 18 14 13 11 9 6 4 1 3 6 9 12 15 17 18 19 19 20 19 20 19 19 19
4 6 17 12 9 20 22 23 25 27 28 30 26 27 30 33 31 30 27 23 19 16 15 13 10 6 3 0 4 7 10 12 15 16 17 19 20 21 22 21 21 21 21 23
11 6 6 10 8 17 21 24 24 23 24 25 28 29 32 33 31 28 25 21 17 13 12 10 7 3 1 4 7 10 12 14 15 16 17 18 20 21 21 22 24 22 24 25
12 12 9 11 13 21 22 23 25 25 25 27 27 32 33 34 31 27 24 18 13 13 11 7 4 0 4 7 9 11 12 13 14 15 16 18 18 19 20 22 23 25 26 27
6 5 10 15 21 23 24 23 25 25 27 29 32 33 33 31 30 27 19 15 14 11 8 4 0 4 6 9 10 12 13 13 14 15 16 17 18 19 20 22 23 25 26 29
12 7 10 19 25 25 22 22 21 24 27 31 32 31 31 30 27 19 19 16 11 7 3 1 4 6 9 10 11 12 13 14 15 15 16 17 18 19 20 21 23 24 25 25
7 7 7 12 20 24 24 24 25 26 27 29 29 29 24 18 19 20 16 11 8 4 2 3 5 8 10 11 12 13 13 14 15 16 17 17 18 19 20 20 21 23 24 25
6 5 13 16 21 22 24 25 26 27 27 26 25 21 19 17 15 12 11 9 6 3 2 5 8 10 12 12 13 14 14 14 15 16 17 17 18 18 19 20 21 22 24 25
15 16 16 20 21 20 23 24 26 28 25 23 21 20 15 11 9 10 9 6 3 3 4 7 9 11 12 13 14 14 15 15 15 16 17 17 18 18 19 20 21 22 24 25
18 18 19 19 21 21 23 23 24 25 23 20 14 12 11 12 12 9 6 4 4 4 6 8 10 12 13 14 15 15 16 16 16 17 17 18 18 18 19 20 21 22 24 25
17 17 20 23 25 26 23 21 21 21 17 13 12 12 13 12 10 7 5 4 5 6 8 10 12 14 15 15 16 16 17 17 17 17 17 18 19 19 20 20 21 23 24 25
17 19 23 24 25 25 24 20 13 12 14 13 11 10 9 7 6 4 5 6 7 9 10 12 14 16 17 17 17 17 18 18 17 17 18 18 19 20 20 21 22 23 24 25
24 25 25 22 21 20 19 16 14 12 11 10 9 7 4 3 4 5 6 7 9 10 12 14 16 18 19 18 18 18 18 18 18 18 18 19 19 20 21 22 22 23 24 24
24 22 20 18 16 15 15 14 12 10 8 6 3 1 2 4 6 7 9 11 12 13 15 17 18 19 19 19 18 18 18 18 18 18 18 19 19 20 21 22 22 24 24 24
18 17 16 13 12 11 10 9 6 4 2 2 4 6 9 10 11 11 11 12 14 16 18 19 20 20 19 18 18 18 19 19 19 19 19 20 21 21 21 22 23 23 22 22
18 16 14 12 11 8 6 4 1 2 4 7 8 9 10 11 11 12 14 16 17 18 19 20 20 19 18 18 18 19 19 19 20 20 20 20 21 22 22 23 23 22 21 20

GFSNGP_850_spd_069.txt.gz
Wind_Speed
21 19 13 17 19 21 19 18 19 16 18 16 10 8 12 10 5 5 10 10 11 11 11 11 13 14 18 22 22 22 21 21 19 17 14 12 10 11 12 13 10 8 10 11
21 18 18 15 15 17 18 19 19 19 20 14 16 12 9 12 8 8 5 5 7 9 11 12 12 12 12 14 15 16 17 16 14 12 11 11 11 14 15 11 11 11 9 8
17 19 19 18 18 17 17 18 16 17 14 15 12 10 12 15 7 9 6 5 6 10 12 12 13 14 11 13 14 13 13 14 14 14 14 14 14 13 12 11 8 8 8 7
8 1 15 10 15 17 19 18 16 17 17 15 15 16 5 5 9 9 8 9 10 12 13 13 15 15 15 14 15 16 17 17 17 16 15 16 15 12 9 6 5 2 2 3
8 12 14 17 10 9 13 16 16 18 18 17 15 1 9 9 8 11 12 13 14 15 16 17 18 18 18 18 18 18 18 17 17 15 17 15 12 7 4 3 3 4 3 3
6 15 19 14 14 12 13 13 16 18 12 11 3 5 9 17 17 17 16 18 19 19 19 18 18 18 19 19 18 17 17 17 17 15 12 5 4 6 6 6 5 4 4 4
11 8 9 13 14 14 14 9 14 11 9 9 9 6 12 19 19 19 19 19 19 18 17 17 17 18 19 18 18 18 17 16 14 8 9 9 8 7 5 4 4 6 8 9
8 8 12 11 10 11 13 16 8 9 10 10 9 14 17 19 21 21 21 20 19 19 18 17 18 18 18 17 17 16 16 13 12 11 8 7 7 5 4 3 4 6 9 9
7 5 8 20 13 20 9 7 9 9 10 11 18 18 21 22 23 23 22 21 19 20 20 19 18 18 19 18 17 16 14 13 11 9 8 7 5 4 2 3 4 5 7 6
11 6 14 11 14 14 7 10 8 7 9 14 19 19 23 24 25 25 24 22 22 22 21 20 18 18 17 17 15 14 13 11 9 7 5 4 1 2 2 4 6 7 6 7
18 19 23 18 16 15 13 13 12 12 11 15 18 22 24 25 26 25 24 24 23 23 22 20 19 18 16 15 15 14 13 11 8 7 5 4 5 6 6 11 10 9 9 10
8 11 11 17 4 7 14 16 14 12 13 17 21 23 26 26 26 25 24 24 23 21 21 19 18 16 14 13 13 12 11 9 8 5 5 3 3 7 10 11 12 12 12 12
15 7 6 6 9 10 7 7 10 13 15 16 19 21 24 25 25 24 23 23 22 22 20 19 17 15 12 12 11 10 8 6 5 5 4 5 4 4 5 12 16 16 15 15
8 8 9 7 2 8 6 4 7 7 9 15 18 21 23 23 25 24 23 21 21 21 19 17 16 14 11 9 8 6 4 4 3 3 3 5 5 7 7 8 9 9 14 18
9 8 9 4 3 2 1 1 6 7 9 13 17 20 21 23 24 23 22 22 22 21 19 17 15 11 9 7 4 3 3 4 5 7 8 9 10 9 9 9 9 10 11 12
7 5 3 2 2 2 2 4 7 10 12 14 16 18 20 21 23 23 22 23 22 22 20 17 13 10 4 3 4 4 6 7 7 8 8 9 9 9 8 9 10 10 12 13
7 4 2 3 4 5 6 7 9 12 14 16 18 20 26 28 26 23 22 21 20 21 18 13 9 5 4 5 6 6 6 9 8 8 9 10 10 9 9 9 11 11 12 14
5 6 5 6 9 11 12 14 15 18 21 25 29 30 27 23 26 27 24 20 18 16 12 7 5 5 7 7 7 7 8 9 10 10 11 10 11 11 10 10 11 12 13 14
12 15 15 15 15 15 16 18 19 20 22 23 24 24 24 25 24 21 17 15 12 9 6 4 7 7 6 6 7 8 9 10 10 9 11 12 10 9 11 11 12 13 13 14
16 15 15 18 16 15 20 19 20 21 21 23 27 28 27 22 18 16 14 11 7 4 5 6 4 5 6 6 7 9 9 9 8 9 9 14 10 11 11 13 13 13 14 14
24 23 23 23 25 24 25 25 28 29 28 27 25 22 19 17 14 10 6 4 5 5 3 3 3 4 8 9 10 10 9 9 9 10 11 11 13 13 13 13 14 14 14 15
29 30 31 29 31 32 29 29 30 28 23 20 18 16 15 13 9 7 7 4 2 1 2 4 6 8 11 13 11 11 10 10 11 12 12 13 14 14 14 14 15 14 15 15
32 31 32 32 32 31 29 25 22 19 20 18 16 14 12 10 7 5 2 1 2 2 1 9 11 13 14 14 14 13 11 11 12 13 13 14 15 15 15 15 15 16 15 16
31 29 29 27 26 25 25 21 19 18 16 15 13 12 9 7 5 2 1 3 5 6 9 12 14 15 16 15 12 12 12 12 13 13 13 15 15 15 15 16 16 16 17 17
29 27 24 23 23 22 21 19 18 16 14 13 11 8 6 4 2 1 5 7 6 4 9 16 17 17 13 12 12 13 13 13 13 14 15 14 14 15 16 16 17 17 18 19
26 26 25 22 20 18 15 14 14 12 10 10 9 8 7 6 6 5 6 7 9 9 10 11 14 14 12 12 13 14 14 14 14 14 15 15 15 15 16 16 17 17 18 19
25 22 21 21 19 17 15 13 12 11 10 9 7 7 6 7 8 6 7 7 8 10 10 12 12 14 14 15 15 14 14 14 15 15 15 15 15 15 15 16 16 19 21 21

GFSNGP_850_spd_072.txt.gz
Wind_Speed
19 19 17 18 20 19 20 16 14 13 16 15 12 1 4 5 3 10 16 10 9 9 18 16 15 20 25 27 28 29 26 26 25 25 22 20 19 17 16 15 15 15 15 13
20 20 22 16 20 21 21 20 19 14 17 14 16 17 13 10 5 6 5 4 1 7 17 20 20 22 22 23 24 22 20 18 16 17 16 16 14 13 15 17 16 13 10 9
16 19 17 18 16 13 13 14 13 13 10 11 9 10 9 4 5 7 7 6 3 5 17 20 19 21 19 19 19 19 18 16 14 13 11 13 14 16 15 13 12 10 9 8
9 3 23 10 12 14 13 12 13 14 11 10 12 16 3 3 3 7 10 9 10 13 14 17 18 16 15 12 16 16 15 15 15 15 17 17 17 15 12 12 11 8 5 3
7 14 12 19 10 9 9 14 12 14 13 14 18 4 3 7 5 7 14 13 14 14 17 15 16 15 14 16 17 18 18 18 18 18 19 18 15 15 14 10 7 7 7 9
6 11 16 9 12 6 7 12 13 12 9 11 7 4 1 11 10 13 14 14 16 17 19 20 17 17 19 20 19 18 18 17 19 18 18 17 15 11 10 9 9 12 10 10
7 5 5 8 11 13 14 5 17 18 16 11 5 4 15 15 16 17 18 18 19 20 22 22 23 24 24 24 22 21 20 19 20 18 13 11 13 13 13 13 13 14 13 13
6 6 15 5 4 19 9 6 14 11 9 5 9 11 14 17 19 21 22 23 23 23 22 22 22 24 23 21 20 21 19 20 17 17 18 18 16 15 12 10 11 10 10 10
5 3 2 11 10 14 7 4 7 9 7 7 13 15 16 20 20 22 22 23 22 23 23 22 22 21 23 22 21 22 20 20 20 17 15 14 12 11 8 7 8 10 11 9
6 7 11 9 5 8 10 6 4 6 7 5 16 18 19 21 22 23 23 23 22 23 23 22 20 20 22 23 21 20 20 18 17 15 14 12 9 9 10 12 11 11 9 11
13 15 10 22 22 18 13 11 14 9 9 9 13 21 23 24 25 25 24 23 22 22 22 20 20 21 20 19 18 18 17 15 15 14 9 12 13 10 10 10 10 11 14 15
2 6 5 4 8 8 8 15 12 8 8 8 11 15 18 19 21 23 23 22 21 21 22 20 19 18 16 16 17 17 16 14 13 12 11 8 4 7 7 9 11 12 13 15
5 8 3 2 4 4 5 6 5 6 8 8 9 12 16 17 19 20 20 21 21 20 20 20 19 17 16 16 16 16 15 11 10 7 7 8 7 8 8 11 13 14 13 14
19 9 4 7 1 4 3 5 5 3 3 4 7 12 16 17 19 20 20 19 20 20 18 18 17 14 14 16 14 10 7 8 6 4 7 7 9 9 10 11 12 13 14 16
7 4 3 2 1 1 1 3 5 7 8 10 12 18 21 23 23 20 20 21 22 22 19 18 16 15 13 9 7 7 4 3 7 6 7 9 10 11 10 11 11 12 10 11
11 7 5 4 5 4 5 7 10 10 12 15 18 20 23 27 31 31 29 27 29 24 17 13 14 14 13 9 5 4 3 7 9 10 10 10 10 10 10 11 13 13 12 13
13 7 9 9 8 9 10 10 12 14 17 21 25 27 29 32 31 29 25 21 15 14 16 14 12 9 7 5 3 5 7 8 8 9 10 11 12 12 12 13 13 14 14 15
12 12 9 15 17 18 18 19 19 20 21 22 24 25 28 25 25 21 16 15 18 17 13 10 8 5 2 2 5 7 7 9 10 10 11 11 13 14 13 14 14 14 15 16
14 18 19 21 18 18 19 20 20 23 24 23 23 22 19 18 20 22 21 17 14 11 9 6 2 2 3 5 7 8 9 10 11 11 13 14 14 12 13 16 15 17 19 18
16 19 20 22 22 22 25 23 24 24 21 19 21 23 26 25 22 20 16 13 9 7 4 3 2 3 4 6 8 11 11 12 12 13 13 15 16 12 17 17 14 16 18 19
26 27 30 30 31 28 26 25 26 27 26 26 29 29 26 21 16 12 9 8 6 5 3 1 3 5 7 9 10 13 14 14 13 13 14 15 16 17 16 17 18 19 20 19
34 37 38 38 37 34 30 29 30 30 28 26 24 23 20 17 13 10 7 6 5 5 4 5 7 9 12 13 12 12 13 14 14 15 15 15 16 18 19 18 19 19 19 21
35 36 36 37 37 37 33 30 28 27 27 24 22 19 17 14 10 6 8 7 4 4 5 9 12 13 13 14 12 12 14 15 15 15 16 17 17 18 20 19 18 20 20 20
36 35 35 34 32 31 31 27 25 23 22 20 19 16 12 8 8 7 5 1 2 5 8 11 14 16 15 14 14 15 15 16 16 16 17 20 20 16 17 19 19 19 20 21
33 32 31 30 31 29 26 23 23 19 17 15 13 10 9 9 5 5 6 6 5 4 10 16 19 21 17 12 12 14 17 17 17 20 17 16 18 19 18 17 18 20 22 24
32 32 30 28 26 23 21 19 20 16 13 14 13 12 10 10 8 9 10 9 10 11 11 11 15 15 16 17 19 18 16 16 17 18 18 19 21 18 17 18 19 20 21 23
27 26 25 24 22 20 17 15 16 18 14 10 11 9 8 7 7 7 6 8 10 9 11 12 13 15 16 18 17 17 18 18 17 18 19 19 19 19 19 20 20 21 22 21

GFSNGP_850_spd_075.txt.gz
Wind_Speed
18 18 11 9 10 12 11 11 7 6 8 9 8 6 8 8 15 11 15 16 11 24 22 21 19 17 23 30 31 30 29 28 27 29 29 25 22 20 19 19 17 17 17 18
15 13 14 14 11 15 13 10 7 7 11 12 14 12 11 16 22 22 24 18 5 5 28 27 25 23 23 23 23 21 22 23 23 23 22 19 17 17 17 18 17 17 18 16
13 12 7 10 11 8 9 13 9 10 9 7 6 5 4 9 18 20 23 17 10 12 24 27 28 27 25 26 24 22 19 15 16 16 17 16 15 16 16 17 17 16 15 15
4 2 14 4 4 5 9 11 6 1 2 3 7 7 9 15 17 22 17 14 12 16 24 27 27 26 23 20 18 18 18 18 17 16 16 15 16 17 18 16 16 15 14 11
5 10 4 11 5 4 5 8 6 4 4 4 11 7 8 13 14 15 16 17 17 18 22 24 22 18 16 14 16 17 19 19 18 17 16 18 18 18 18 18 16 12 12 13
2 4 9 3 9 9 3 6 4 2 5 5 3 4 4 15 12 18 19 20 21 19 19 19 18 17 16 17 20 21 19 18 17 18 19 20 19 20 19 14 15 15 15 15
1 2 6 5 13 8 6 7 8 7 8 13 3 6 15 18 15 14 18 20 20 19 19 18 16 16 18 21 20 19 19 19 21 21 21 20 19 17 18 19 18 19 19 18
4 4 4 15 2 8 5 12 17 5 8 5 13 17 24 21 19 19 19 19 20 22 19 16 16 16 19 20 20 20 19 19 20 21 19 18 19 19 18 19 21 21 19 17
4 4 9 9 7 5 1 6 5 6 5 3 20 23 23 22 18 17 18 21 21 23 24 22 22 21 22 20 16 16 18 22 20 18 18 19 20 21 21 19 18 17 15 13
3 5 12 11 11 9 9 6 4 9 6 2 13 16 18 16 16 19 21 22 21 21 22 19 17 17 18 18 17 18 21 21 22 21 18 18 18 17 16 16 14 14 14 15
4 7 19 16 9 12 19 15 11 12 9 1 4 14 15 16 19 22 22 20 20 21 20 20 19 20 21 21 23 23 23 20 19 18 17 15 14 13 11 11 12 13 14 14
6 15 10 6 13 16 23 17 16 7 10 7 4 14 17 18 21 22 22 21 25 25 24 25 27 26 22 19 21 23 21 18 15 14 12 10 9 9 9 11 11 11 12 14
5 8 14 13 7 4 6 6 6 3 2 2 2 14 18 20 22 25 26 28 29 30 29 27 26 24 18 17 18 17 15 13 12 12 10 4 7 9 12 11 11 14 14 13
15 13 7 11 8 5 2 1 2 2 3 4 6 18 23 26 29 30 29 31 32 31 29 26 24 21 17 14 13 10 8 8 5 6 10 8 9 10 13 15 16 17 16 15
5 8 12 14 9 5 6 6 10 14 15 19 23 28 31 35 33 33 33 34 32 28 23 19 16 14 11 10 11 12 12 10 8 7 6 9 11 13 16 16 16 16 15 14
14 11 14 16 13 12 12 12 18 20 20 25 29 32 37 39 38 34 30 26 22 20 15 9 9 13 14 12 9 6 6 7 6 7 8 10 13 15 14 14 15 15 14 14
23 17 22 20 22 20 18 17 18 19 23 24 28 31 33 34 34 31 26 20 14 10 8 9 11 11 7 5 3 1 1 4 7 9 11 13 14 14 14 15 16 15 15 17
18 19 19 20 23 22 23 22 21 23 23 26 30 31 32 29 28 23 18 12 12 16 14 11 8 6 4 3 3 6 8 8 8 9 11 12 13 14 14 13 14 15 16 17
21 25 23 22 21 23 25 24 24 26 28 29 29 28 25 23 21 19 18 17 16 14 12 9 6 5 6 6 4 4 5 7 8 10 12 14 14 15 15 15 16 19 20 20
18 20 21 22 22 23 27 26 28 29 26 23 26 26 26 25 23 21 17 17 14 12 10 9 7 6 5 4 5 8 10 11 12 12 12 13 15 16 17 18 16 16 19 21
24 25 29 31 31 32 32 31 30 30 28 26 29 31 29 24 19 16 15 15 14 9 7 6 5 6 6 7 9 10 11 12 13 13 14 16 16 15 16 18 19 21 22 22
34 35 35 35 35 34 33 32 34 34 33 32 29 26 23 20 16 16 15 14 11 5 5 5 7 8 9 9 11 12 13 14 15 15 15 16 18 18 18 19 20 20 19 21
38 38 39 40 40 40 38 36 34 32 31 28 24 20 19 18 14 14 15 10 6 3 3 7 9 11 10 11 11 13 14 15 15 15 16 17 19 21 21 18 17 20 22 21
40 40 41 39 37 37 37 32 31 28 27 23 20 18 15 16 15 12 8 5 3 1 5 10 12 14 13 12 12 13 15 16 16 16 18 19 16 17 21 23 21 19 20 22
38 36 35 34 34 33 29 26 25 23 21 21 20 16 12 10 8 9 6 5 4 5 9 11 14 15 16 16 17 18 15 15 17 18 18 20 22 24 24 19 20 22 24 25
35 35 33 31 29 25 22 20 22 19 18 19 17 13 11 10 9 7 6 7 6 6 7 10 11 14 16 16 16 15 17 18 19 19 20 22 23 23 23 23 23 23 24 25
30 28 28 27 24 23 21 20 20 18 14 13 16 11 9 8 6 4 4 5 6 8 9 10 12 14 15 16 15 15 16 16 16 18 21 22 22 22 21 22 24 24 23 21

GFSNGP_850_spd_078.txt.gz
Wind_Speed
12 7 5 10 16 16 16 9 12 9 10 10 8 8 13 24 16 16 20 25 26 21 20 19 20 23 26 35 37 38 42 40 42 31 33 35 34 33 25 21 24 26 23 20
4 9 10 16 21 14 11 8 8 7 7 10 17 18 11 19 25 25 20 23 20 17 22 23 22 21 26 34 37 37 36 38 36 32 34 29 25 20 21 22 21 21 22 22
5 10 13 9 16 19 6 6 9 9 9 7 7 7 14 24 21 28 23 21 21 19 22 29 28 26 26 30 31 32 32 32 30 26 24 22 20 19 19 19 20 21 20 21
3 6 8 8 12 19 11 11 8 5 6 8 11 17 15 16 17 27 25 23 22 20 26 33 31 28 26 26 25 23 21 20 19 19 19 21 19 18 18 17 19 20 19 19
5 7 3 8 12 5 7 9 7 9 7 6 5 8 2 15 20 26 26 24 20 18 22 28 27 25 23 20 17 15 15 15 17 18 20 20 19 18 17 18 19 18 18 18
2 7 8 4 15 23 1 6 5 8 8 5 8 4 4 17 20 24 22 18 15 16 17 21 22 21 19 17 17 16 15 16 17 17 17 16 16 16 17 17 18 17 17 15
1 1 6 8 7 16 8 7 7 6 8 6 5 8 10 24 22 21 18 18 17 17 18 18 18 17 17 16 14 12 13 14 14 14 14 15 17 17 19 19 18 19 16 15
3 1 6 6 10 6 6 8 7 1 5 8 7 11 15 26 22 24 22 21 18 17 16 15 14 14 14 12 12 12 11 11 12 15 17 18 18 19 18 18 17 16 18 18
5 6 5 9 1 15 12 3 7 10 5 3 15 20 26 26 25 24 21 19 17 16 15 14 12 10 11 12 12 11 11 12 15 17 17 17 17 17 16 14 14 16 15 14
4 8 11 16 12 12 14 6 5 8 8 6 7 11 18 22 22 21 20 20 17 15 15 16 15 13 10 12 11 9 13 18 18 16 17 16 16 15 15 15 13 11 12 13
3 6 7 15 16 13 13 12 5 5 1 2 2 7 16 18 19 21 23 21 20 20 22 21 19 19 17 14 12 16 17 17 18 17 17 17 15 13 9 9 8 8 10 12
5 13 9 9 5 12 13 15 13 11 2 4 4 6 15 21 23 26 26 27 27 25 23 23 23 23 20 18 19 21 22 19 16 15 13 11 8 7 6 5 7 11 14 14
12 26 23 16 7 8 15 12 8 7 7 9 6 9 21 26 29 30 29 29 28 27 26 27 26 24 21 20 19 19 19 16 13 10 9 10 9 10 14 13 14 13 15 16
24 14 8 18 8 7 10 9 6 4 4 5 8 18 29 33 32 31 31 31 31 31 29 27 26 26 23 20 19 15 11 11 10 10 10 12 13 12 13 14 15 17 18 19
20 16 13 15 17 12 11 10 10 10 14 19 24 31 33 35 34 33 32 33 32 30 29 26 23 19 13 9 7 6 5 6 7 7 8 9 9 10 11 12 14 16 18 17
13 13 19 19 18 17 13 12 15 19 20 25 29 32 34 36 36 35 34 31 27 27 19 11 9 10 7 4 2 2 2 1 3 3 4 6 8 11 12 13 14 16 17 17
21 16 22 21 21 20 16 16 18 21 24 25 28 30 32 36 37 34 31 24 19 17 15 12 14 11 9 7 5 5 3 1 3 6 8 10 11 11 12 14 15 16 16 16
20 22 21 23 24 22 22 22 23 25 28 30 32 33 35 34 34 28 23 19 19 19 18 16 13 10 7 6 4 4 5 6 6 6 7 9 11 12 13 14 15 16 16 18
20 23 23 23 22 24 26 27 27 28 29 31 33 34 31 28 27 26 23 22 22 21 19 13 9 7 6 6 5 5 5 6 7 8 10 11 12 13 14 15 16 17 15 14
22 23 23 25 26 27 31 31 32 34 33 32 31 30 30 29 27 26 23 24 20 18 14 12 9 8 7 6 6 8 10 10 11 11 13 13 14 15 15 13 15 17 19 20
23 23 25 27 30 31 34 34 35 36 33 31 32 33 32 29 25 22 20 22 18 13 11 9 7 7 6 6 8 9 10 11 12 13 14 15 15 16 16 17 17 18 18 18
25 29 32 34 36 37 34 34 34 36 35 34 32 30 27 25 21 20 18 18 16 8 6 7 8 8 8 8 10 11 12 13 13 14 15 16 17 19 19 19 18 17 18 20
35 37 38 39 40 42 41 39 36 34 32 30 27 25 24 23 19 17 19 13 8 5 6 8 10 9 9 10 11 12 13 14 14 14 15 16 17 17 19 21 23 23 21 21
39 40 42 41 40 38 38 34 32 30 28 25 23 20 17 17 18 15 13 9 5 4 7 9 11 12 12 13 13 13 13 14 15 16 17 17 18 19 21 22 21 21 22 24
40 40 38 36 36 35 32 29 28 26 25 24 21 17 14 14 10 13 8 6 5 6 8 9 11 12 14 14 14 14 14 15 16 17 16 17 19 20 21 22 21 22 23 23
35 33 32 31 30 27 25 24 26 23 21 21 19 15 14 12 11 8 6 5 5 6 8 9 10 11 11 11 12 13 13 14 14 15 17 18 19 18 18 19 20 21 22 22
31 29 28 27 24 23 22 21 22 21 17 15 17 13 9 8 7 7 6 5 7 8 8 8 9 10 10 11 12 13 13 14 15 16 17 17 17 18 19 20 21 21 21 21

GFSNGP_850_spd_084.txt.gz
Wind_Speed
11 14 20 26 22 10 15 12 10 5 10 9 10 10 13 20 14 15 17 22 24 25 26 25 24 25 23 23 26 27 30 35 38 44 45 44 42 41 42 44 42 39 36 37
7 13 18 20 21 14 14 5 6 5 6 7 12 18 7 18 21 18 18 22 29 31 30 28 26 23 24 25 26 27 27 28 30 32 32 35 36 34 35 36 32 28 28 28
9 10 20 10 24 21 8 6 6 7 7 6 8 9 15 29 29 28 25 24 26 35 34 30 30 28 27 28 27 27 26 27 26 24 26 28 28 28 28 27 23 22 23 24
5 7 8 8 5 14 14 12 9 5 5 7 9 23 32 37 33 31 30 30 28 31 33 33 32 28 25 25 23 21 20 20 20 20 21 21 21 20 16 15 18 20 20 18
3 4 8 15 6 5 7 18 14 13 7 7 24 15 23 33 32 31 26 21 27 28 29 31 27 23 22 17 14 12 10 10 10 9 9 7 8 11 15 17 18 21 19 18
3 3 5 6 9 23 0 10 6 4 11 13 6 4 7 21 24 30 31 24 25 25 24 23 21 19 15 11 7 7 7 5 4 4 6 8 10 14 16 18 16 14 13 12
8 5 6 4 9 29 6 5 8 8 14 8 5 9 23 18 13 13 15 16 18 24 22 20 17 14 12 11 10 8 7 6 5 6 7 10 12 12 11 11 12 13 13 14
4 5 7 5 13 6 5 16 17 14 21 21 22 21 22 16 10 7 9 15 20 22 20 18 16 14 13 12 11 7 4 2 2 3 4 4 5 7 8 10 12 13 12 12
6 4 4 9 10 31 24 23 16 18 14 27 20 30 12 10 8 10 13 17 18 20 23 21 17 12 14 12 8 6 5 4 2 2 3 5 6 8 9 9 7 7 9 10
1 6 12 18 19 30 23 27 14 19 21 24 22 13 10 6 9 15 18 21 25 26 23 21 17 14 12 13 12 11 9 6 6 6 9 11 10 9 7 7 7 9 11 10
6 12 22 25 17 17 26 21 20 9 16 16 13 1 12 20 17 20 22 23 21 22 22 20 18 16 16 13 11 11 12 12 10 10 11 11 11 10 9 9 7 5 2 3
6 13 4 15 26 31 22 18 9 9 8 10 5 3 9 18 17 16 21 20 20 17 20 23 22 19 16 15 12 11 13 14 15 14 13 11 8 7 6 3 3 6 8 9
4 15 23 31 32 14 8 6 1 3 4 5 7 10 7 12 17 17 16 19 22 19 18 20 19 17 16 15 14 15 16 18 15 12 9 7 5 4 4 5 5 6 8 10
18 22 19 23 14 23 11 7 10 10 9 2 5 12 15 20 21 19 21 22 22 23 24 23 23 21 19 18 18 18 15 12 9 8 6 5 4 4 4 4 6 7 8 9
28 20 18 23 20 14 8 13 6 7 10 8 10 15 18 23 25 22 22 25 27 28 29 27 27 26 20 15 13 14 11 10 8 7 6 5 5 5 5 6 7 8 9 10
17 18 18 16 14 10 10 10 11 13 14 15 15 18 22 25 30 32 31 31 33 34 30 25 24 20 15 11 11 11 10 9 8 7 6 5 5 6 7 8 9 10 11 12
16 14 12 13 14 14 13 12 12 16 19 20 22 24 28 32 35 36 34 31 31 30 26 22 22 17 15 14 13 13 11 10 7 7 6 7 7 8 9 10 11 11 12 13
18 22 22 21 19 17 16 15 18 19 23 27 31 32 35 36 39 36 33 30 29 29 25 22 19 17 17 15 13 12 10 9 7 7 7 7 9 10 10 11 12 13 14 15
9 10 9 14 17 18 20 22 24 25 28 31 36 38 36 35 35 35 31 29 27 27 24 19 17 15 15 14 10 9 9 8 8 8 9 9 10 11 12 13 13 14 15 16
4 6 10 15 18 21 26 27 31 34 34 38 42 42 39 37 34 32 28 29 27 25 20 17 13 12 12 11 9 9 9 9 10 10 10 11 12 12 13 14 14 15 16 16
8 12 16 19 23 25 29 32 36 38 38 36 38 39 38 35 31 29 28 30 24 19 16 12 10 10 10 10 9 10 11 11 11 11 11 12 12 13 13 14 15 16 17 17
14 17 22 27 29 31 33 36 39 40 38 38 37 37 35 32 28 27 25 25 20 13 11 10 10 10 11 10 11 11 12 12 12 12 12 12 13 15 15 16 16 17 18 18
24 26 28 31 34 35 35 40 40 39 40 38 36 33 31 29 25 23 25 20 15 11 9 10 11 11 11 10 11 12 12 12 12 13 14 15 15 15 15 16 17 18 20 21
27 28 32 36 39 41 41 41 39 37 36 33 31 27 23 23 24 21 20 16 12 10 10 12 11 11 11 12 12 12 12 13 14 14 14 14 14 14 16 17 19 20 21 21
33 35 36 37 40 39 39 37 37 35 33 30 27 23 20 17 15 19 15 14 12 10 11 12 11 11 11 11 12 13 13 12 12 13 13 13 14 16 17 19 20 21 21 22
34 35 34 35 36 35 34 31 32 28 26 26 24 21 20 18 17 15 13 12 11 11 11 11 10 10 11 12 12 11 12 12 13 13 13 14 16 17 18 18 19 20 21 22
31 31 31 30 29 27 26 25 25 25 22 21 24 20 17 16 14 13 12 11 10 10 10 10 10 11 10 10 10 10 11 12 12 13 14 15 16 17 18 18 19 20 21 23

GFSNGP_850_spd_087.txt.gz
Wind_Speed
11 10 14 13 14 17 20 18 14 10 16 15 16 10 15 21 12 10 12 15 19 20 20 20 22 22 22 24 25 27 31 36 39 39 41 41 40 38 37 35 35 35 36 36
6 13 15 18 20 20 22 20 22 18 19 7 16 16 13 18 15 18 19 18 19 22 22 25 25 23 24 23 23 22 23 24 25 28 32 34 35 35 34 33 32 31 30 28
4 1 8 12 12 12 19 19 17 17 11 8 9 8 10 18 20 22 27 28 25 23 24 29 30 27 27 25 23 21 20 20 20 19 20 22 23 24 25 24 22 21 23 23
5 6 9 8 5 11 14 22 18 15 7 9 9 15 20 23 23 28 31 29 35 31 29 30 33 28 27 25 21 19 17 16 16 15 16 16 14 13 14 17 18 18 19 20
4 7 15 17 4 1 4 18 13 18 18 14 18 17 27 32 32 28 31 29 30 32 29 27 27 26 22 19 16 14 13 12 10 8 8 9 10 11 13 14 14 16 16 17
5 7 6 4 4 1 1 10 19 22 14 10 13 9 14 24 22 20 19 26 27 23 18 23 24 23 21 17 15 13 12 12 10 9 8 8 8 11 12 11 12 15 12 9
11 9 10 5 6 2 3 5 29 28 28 19 7 9 11 11 11 10 9 13 17 17 19 23 23 23 22 20 19 18 16 13 10 7 6 6 5 5 8 8 7 8 9 12
7 6 9 5 3 2 2 12 28 35 28 18 19 8 4 5 5 7 5 3 10 18 21 19 22 24 27 25 22 18 15 11 7 5 4 5 6 7 6 8 10 12 11 11
7 3 6 7 3 5 6 11 27 32 31 17 22 14 7 11 10 11 10 11 15 22 30 27 23 22 27 25 18 17 15 15 13 11 10 10 11 12 14 12 11 11 9 9
1 3 6 12 22 22 19 22 33 30 25 18 17 15 8 9 11 13 15 19 26 31 34 33 27 26 26 24 21 17 17 16 14 11 13 15 15 15 13 11 8 8 6 6
6 10 9 14 5 21 30 33 26 18 9 5 15 10 5 13 15 17 22 25 27 30 30 33 29 29 26 23 20 19 20 20 16 16 16 16 15 14 12 12 9 7 6 4
8 12 10 18 17 22 24 25 22 10 10 5 6 4 3 11 14 20 24 26 27 28 29 29 25 25 21 19 17 16 19 20 20 19 19 17 14 15 13 9 5 3 3 3
13 15 12 24 23 20 14 18 10 5 13 11 10 7 13 15 17 25 26 27 30 31 31 30 27 25 22 18 18 19 20 22 21 17 15 14 12 10 9 8 5 4 4 5
20 21 18 24 14 20 19 13 6 6 8 13 19 19 16 20 23 21 23 26 27 28 28 29 28 28 25 22 21 22 23 20 17 15 12 10 10 9 8 7 5 6 7 5
34 24 27 27 24 23 15 10 8 3 7 13 18 21 21 24 25 27 28 28 28 30 32 32 32 31 26 22 21 21 18 16 14 13 12 11 10 9 8 7 7 7 5 2
20 14 15 17 20 18 12 10 11 9 10 14 18 24 26 28 28 29 30 31 33 36 34 32 32 28 23 19 18 18 17 16 14 13 12 11 10 9 8 8 7 7 8 10
16 14 14 16 14 13 12 11 10 12 15 16 19 23 26 29 32 32 34 34 34 34 31 28 29 23 21 19 18 18 16 14 12 11 10 9 8 8 8 8 8 9 10 11
18 19 20 23 24 20 13 11 12 15 19 22 26 28 32 34 38 38 36 34 33 33 29 27 25 23 22 19 16 15 13 11 9 9 9 8 9 9 8 9 9 9 10 10
15 16 16 13 10 14 16 17 18 20 24 28 32 37 39 39 39 38 35 33 32 33 30 25 22 20 18 16 12 12 10 10 10 10 10 10 9 10 10 10 10 10 10 10
9 9 8 7 7 12 18 20 25 29 32 37 41 42 42 40 37 36 32 33 30 30 25 21 17 15 14 14 11 12 11 10 11 11 11 11 11 11 11 11 11 10 10 11
3 2 4 8 13 16 20 25 29 33 36 37 42 44 42 39 35 33 32 33 27 23 20 17 14 14 14 13 12 12 12 12 12 13 13 13 12 11 10 10 10 11 12 13
5 9 13 17 21 24 23 26 31 37 39 39 41 41 41 37 32 30 28 28 24 18 16 15 15 14 14 13 14 14 14 14 14 13 13 12 10 10 10 11 11 12 13 13
12 16 19 21 24 26 27 29 33 35 40 38 39 38 37 35 31 31 29 23 20 15 14 15 16 15 14 14 15 15 14 13 12 12 11 10 10 10 10 11 12 12 12 13
18 20 25 28 31 35 37 35 36 37 37 36 33 31 30 29 27 24 24 21 17 15 16 17 16 15 14 14 14 13 12 11 11 10 10 10 10 10 10 11 11 12 13 14
24 28 30 33 36 37 37 36 36 34 33 31 27 25 22 20 21 24 20 20 17 15 16 17 15 14 13 13 12 11 10 10 10 10 10 9 9 10 10 11 12 13 15 16
26 28 30 33 36 36 36 34 33 30 28 27 24 22 22 21 21 20 18 17 16 15 15 15 13 12 11 10 10 9 9 9 10 9 9 9 9 10 11 12 13 14 16 18
28 30 31 32 30 30 29 28 27 25 22 22 26 22 20 20 18 17 16 16 15 14 13 12 11 10 9 9 9 9 9 9 8 8 9 9 10 11 11 12 14 16 17 19

GFSNGP_850_spd_090.txt.gz
Wind_Speed
10 12 15 16 16 17 17 14 15 16 19 16 12 16 22 26 24 17 7 13 17 18 20 22 24 25 25 25 28 30 31 32 33 31 31 30 30 31 32 32 32 31 30 28
8 13 15 20 22 21 20 20 22 19 24 20 24 25 24 24 25 20 15 11 9 15 19 23 25 27 27 26 25 26 27 28 25 26 28 29 29 29 28 27 25 25 25 28
4 2 7 13 19 25 23 19 18 19 19 17 19 20 26 24 24 21 21 17 16 16 20 24 27 27 24 27 26 25 23 22 22 22 22 23 23 22 22 21 22 25 26 26
4 5 8 9 6 12 17 13 10 13 14 16 21 25 26 20 16 16 16 17 20 22 18 18 21 22 25 23 25 25 24 22 22 21 21 21 21 21 21 20 21 23 22 22
4 8 14 18 9 10 13 14 5 7 10 14 16 27 29 30 26 27 28 26 23 22 19 23 28 23 25 27 27 25 25 23 22 22 21 19 16 16 17 17 17 17 17 16
5 4 4 5 10 13 10 13 9 11 12 11 18 9 10 22 22 12 16 19 21 15 19 19 20 21 23 25 24 26 24 22 19 18 18 18 16 14 13 13 12 10 9 10
10 8 9 11 17 15 8 5 19 15 17 18 12 13 26 24 18 17 14 11 11 9 12 15 17 22 24 28 26 24 23 23 23 21 19 16 15 13 11 10 9 9 9 10
9 8 11 1 3 5 9 15 21 20 16 16 28 24 20 14 11 7 5 5 10 12 15 17 21 26 30 30 30 29 28 27 25 23 20 18 14 14 12 11 12 14 13 13
8 6 4 5 12 18 20 21 19 25 21 21 29 23 12 11 6 0 5 9 16 21 22 22 22 27 34 34 30 28 26 24 22 19 18 18 15 16 17 14 14 15 12 11
11 12 13 15 15 18 15 16 21 21 20 25 20 5 7 5 4 6 12 17 24 29 33 34 35 35 34 35 27 23 25 26 24 22 22 23 19 18 18 16 13 12 10 9
12 13 15 16 12 14 16 22 20 22 28 19 12 6 6 6 9 8 17 22 27 33 37 36 35 33 30 29 27 27 28 28 25 24 23 24 23 19 16 16 13 11 10 7
10 13 13 19 19 12 18 18 18 22 19 9 8 6 3 9 7 9 20 28 32 33 35 34 32 31 30 29 27 28 30 29 27 25 24 21 20 20 16 13 9 7 5 4
18 20 20 21 18 19 12 15 21 15 6 1 2 5 7 12 3 7 21 29 36 39 36 36 35 33 31 31 28 27 26 28 26 24 23 21 19 16 15 12 6 5 4 2
19 18 23 17 17 14 15 18 14 8 3 6 5 9 14 17 15 16 16 19 26 33 31 34 34 33 30 29 27 25 29 28 26 23 20 17 15 14 13 11 9 8 6 4
19 13 18 19 13 13 11 11 5 3 1 3 6 9 11 15 21 23 25 26 26 30 30 30 32 32 28 28 28 29 27 24 20 19 17 16 15 14 13 11 10 9 7 5
17 15 14 12 10 6 6 9 7 6 4 5 11 10 14 18 22 25 26 25 30 33 34 34 34 31 26 24 25 24 22 20 20 19 18 16 14 13 11 9 8 7 4 4
16 15 18 18 12 10 8 8 8 8 8 9 13 16 17 22 24 24 26 30 33 34 31 30 31 26 23 21 20 22 22 20 17 16 15 13 12 11 9 8 8 6 5 6
10 12 14 18 19 16 10 9 9 11 13 15 19 22 24 27 31 34 35 34 33 34 30 28 26 24 23 20 18 19 17 16 15 13 12 11 10 9 10 9 8 7 6 7
11 12 14 13 12 6 8 9 11 15 16 20 24 28 30 35 38 38 37 35 34 33 28 25 23 22 21 18 15 15 14 13 13 13 13 12 11 11 10 9 9 8 7 6
10 10 9 8 6 4 7 9 12 16 20 26 30 34 36 39 40 39 37 36 31 30 26 22 19 18 17 15 13 13 13 13 13 14 14 13 12 11 11 9 8 6 5 5
7 5 3 1 3 6 10 14 17 22 26 29 34 37 37 36 36 34 34 35 29 25 22 19 16 16 16 14 14 14 14 15 14 14 13 13 12 10 8 7 6 5 5 6
4 2 3 5 8 13 15 18 23 28 30 32 35 37 37 31 29 30 30 30 27 22 19 17 17 16 16 15 15 15 15 14 14 13 12 11 9 8 6 5 5 5 6 7
5 6 8 9 12 17 19 21 25 28 33 34 34 33 32 30 21 24 28 24 22 19 18 19 18 17 16 16 15 14 13 13 13 12 10 8 7 5 5 5 5 6 7 8
9 11 13 15 18 22 28 29 32 35 36 34 30 28 28 29 22 22 24 22 20 18 18 19 18 16 14 15 14 12 11 11 10 9 8 6 4 4 5 5 6 7 8 10
13 16 18 20 22 24 28 31 34 33 33 32 29 26 24 20 21 23 21 21 19 18 19 18 16 14 13 13 12 10 9 8 7 6 5 5 4 4 5 6 7 8 10 12
16 16 18 19 21 24 28 30 33 31 29 27 24 21 21 22 22 21 20 20 19 17 17 16 14 12 11 10 9 7 6 6 5 4 4 4 4 5 6 7 8 10 12 13
18 21 23 25 25 26 28 28 28 26 24 23 25 22 21 21 20 19 19 17 16 15 14 13 11 9 8 7 6 5 4 4 3 3 4 4 5 6 7 8 9 11 12 14

GFSNGP_850_spd_096.txt.gz
Wind_Speed
16 14 13 12 12 11 11 8 7 12 15 13 8 11 13 18 16 18 22 21 11 12 17 19 30 31 31 31 30 34 35 34 34 31 32 31 32 38 38 35 35 37 33 32
14 15 15 17 17 17 17 15 15 15 19 16 16 18 16 16 15 16 19 25 25 16 11 23 23 29 32 32 34 32 36 36 34 34 34 36 35 34 34 34 34 30 30 30
10 12 14 12 15 16 15 16 15 17 14 14 13 14 12 18 25 24 19 18 25 22 17 11 22 26 30 33 33 35 32 35 35 34 35 33 33 32 32 32 29 32 34 35
5 8 7 9 8 4 5 8 10 13 14 16 12 11 14 20 25 32 35 33 29 25 22 11 12 22 28 31 32 33 34 33 32 32 32 31 31 29 31 35 36 35 34 32
3 6 11 15 10 4 5 6 10 10 14 15 19 16 10 17 27 27 30 28 28 28 24 18 15 13 23 29 31 33 34 32 31 32 29 28 32 38 37 36 35 34 32 30
4 6 4 7 8 8 6 4 9 9 9 10 16 7 9 31 32 29 26 23 29 27 25 19 16 16 12 22 28 29 28 27 29 31 36 38 39 38 36 33 32 29 26 21
10 5 8 6 10 6 3 4 9 12 11 13 10 10 21 24 27 26 23 21 28 19 16 20 17 17 16 18 24 30 34 37 40 42 43 40 36 34 33 31 28 25 21 19
7 5 10 10 8 2 2 5 9 9 9 10 12 13 18 27 22 22 17 21 23 20 14 12 10 15 22 27 29 32 36 37 34 33 37 35 34 30 27 27 25 24 25 24
9 5 11 13 11 9 8 7 10 7 10 12 16 19 20 19 16 15 20 26 25 20 18 17 18 12 17 20 23 27 30 29 29 27 27 29 29 30 32 30 31 27 27 28
4 8 10 18 10 16 14 9 8 10 12 14 16 18 14 9 11 16 21 24 20 15 11 10 11 14 16 17 18 22 24 26 27 28 30 29 30 31 31 32 33 32 27 26
9 12 5 8 9 19 15 10 8 8 9 11 10 9 10 13 13 15 20 18 14 7 4 2 5 10 15 19 24 28 32 33 34 35 36 37 36 33 33 29 27 27 23 21
3 8 2 11 10 6 9 9 7 8 11 8 8 7 15 16 11 13 14 10 7 6 13 11 7 10 15 20 26 34 37 38 38 39 39 38 39 38 29 29 24 23 19 13
5 6 4 7 10 16 13 10 6 7 7 7 11 10 10 7 6 9 6 4 4 10 16 20 21 23 20 23 26 31 36 39 40 38 36 36 35 35 35 26 20 17 15 14
11 8 9 15 14 13 11 9 7 7 8 8 10 7 5 3 2 1 4 7 7 8 12 15 18 22 22 27 31 34 37 34 33 33 31 28 27 26 24 22 21 20 16 12
16 12 9 10 11 14 12 9 8 7 4 8 7 5 2 1 2 4 6 7 9 14 17 17 16 21 22 25 29 33 36 35 31 30 28 26 23 22 20 19 18 18 17 16
14 12 12 12 12 13 15 15 14 10 6 7 8 5 3 1 3 7 10 14 17 22 24 26 29 29 27 26 29 29 28 26 25 23 23 22 21 20 18 17 15 14 14 15
13 15 15 14 14 15 15 14 13 8 3 6 7 4 3 6 9 13 15 18 21 24 27 28 30 28 27 26 25 26 25 23 22 22 22 20 18 16 14 13 14 14 15 13
10 10 10 11 12 13 13 10 3 5 10 10 8 4 6 11 15 21 25 26 28 28 27 26 25 23 23 22 23 24 23 22 21 21 20 19 17 15 14 14 15 14 13 11
11 10 10 9 9 9 10 10 6 5 6 5 5 7 10 15 21 26 28 29 27 26 22 22 23 22 22 20 19 19 19 18 18 19 18 18 17 15 14 13 13 11 10 9
11 10 9 9 8 5 6 4 4 3 3 5 10 15 20 24 26 28 27 28 23 21 18 18 20 21 20 19 17 18 18 18 18 18 16 15 14 15 15 13 11 10 8 7
11 10 8 8 8 6 3 1 1 4 8 10 14 20 25 26 26 26 26 27 22 19 17 18 18 18 17 16 16 16 17 17 17 17 16 16 14 13 11 10 9 8 6 5
11 10 9 6 6 5 5 3 3 7 9 13 18 22 25 25 24 23 21 22 20 18 16 15 15 17 16 16 16 16 16 16 15 15 14 12 11 11 9 7 6 6 4 4
7 6 6 6 7 10 11 11 11 12 16 18 21 24 24 24 22 22 23 19 18 17 17 18 16 14 13 13 13 13 13 13 12 12 12 11 9 7 6 5 5 3 3 3
6 6 8 9 9 11 16 17 18 18 20 21 21 21 21 22 21 19 21 19 17 14 15 16 14 12 12 13 12 12 12 11 10 9 9 8 6 5 4 3 3 2 3 4
8 9 9 10 12 14 15 15 17 18 21 21 20 20 19 18 21 22 20 18 16 15 17 15 13 11 11 11 10 9 9 9 7 6 5 4 4 3 2 2 3 3 4 5
10 11 11 12 13 14 14 15 18 18 19 20 19 19 19 20 20 20 18 17 16 15 14 12 10 9 9 9 8 7 7 6 4 3 2 1 1 2 2 3 4 5 6 7
9 11 13 14 13 13 14 16 18 18 18 19 20 18 17 17 17 16 15 15 13 12 11 10 9 8 8 7 6 5 5 3 2 1 2 1 3 3 3 5 6 7 8 9

GFSNGP_850_spd_099.txt.gz
Wind_Speed
6 9 10 12 10 3 8 12 2 5 7 6 10 10 20 12 23 26 31 36 33 27 13 35 36 35 34 30 28 33 35 34 33 32 34 36 39 40 38 37 33 30 28 29
6 5 8 14 12 9 9 10 5 5 10 3 4 12 7 21 21 25 30 30 31 30 30 12 37 38 36 35 33 31 37 37 35 32 33 34 33 39 39 37 33 31 33 33
3 7 10 6 7 10 11 8 4 5 8 11 7 11 17 21 22 22 23 27 31 31 34 28 17 26 36 35 34 34 35 37 37 35 34 34 32 36 38 38 37 36 37 36
2 5 3 6 8 7 5 4 3 8 13 15 11 10 25 26 22 21 22 26 30 32 34 31 25 17 27 36 35 36 37 37 40 38 36 35 34 33 34 39 42 40 39 38
1 1 8 9 4 4 3 6 8 8 8 10 17 8 10 25 24 22 19 22 27 29 29 26 25 23 15 13 42 39 39 38 37 40 38 36 38 41 39 38 39 41 40 39
1 3 4 0 11 12 5 2 7 8 7 8 14 5 5 26 30 22 20 23 25 26 28 24 24 24 19 13 32 39 39 38 36 36 38 40 42 43 43 39 40 38 36 30
5 3 6 2 10 12 2 2 2 1 7 8 4 2 13 21 22 22 18 20 21 23 27 25 21 22 16 10 16 28 33 34 36 38 42 42 44 44 44 42 40 34 31 25
3 3 6 4 8 2 4 7 3 9 7 12 13 14 18 17 20 25 20 22 23 26 28 26 21 21 19 12 9 21 28 34 37 38 42 42 43 40 35 35 35 34 31 28
7 6 6 9 0 9 4 12 8 15 12 7 9 10 11 14 21 22 21 23 27 28 23 21 18 20 20 13 10 11 17 23 27 29 31 33 36 37 36 35 35 36 36 36
2 3 4 8 5 8 10 8 16 11 7 6 6 7 8 12 15 18 17 21 28 27 20 15 13 13 12 7 5 8 12 16 21 25 28 30 31 33 35 35 37 38 37 36
2 8 20 13 6 4 3 16 15 12 9 8 7 6 7 10 13 14 15 19 23 20 17 12 10 9 8 7 11 18 21 25 28 31 32 34 34 33 33 33 35 36 34 31
1 2 10 9 12 11 10 10 9 8 7 9 10 9 11 12 10 9 11 13 14 13 7 6 6 5 6 9 13 21 26 29 31 33 35 37 38 38 29 28 27 27 25 23
5 12 16 10 12 14 16 10 8 8 8 9 12 12 10 5 7 7 6 9 10 6 2 3 4 4 7 10 16 24 30 34 37 40 42 42 39 39 40 32 28 23 23 18
9 12 12 23 18 20 16 11 12 10 7 7 9 9 6 5 4 2 4 7 6 9 11 9 6 6 5 11 18 25 28 30 31 33 34 35 33 32 32 30 29 24 18 15
15 15 17 12 15 13 11 11 15 4 6 4 6 9 7 5 3 2 2 4 5 7 10 13 16 21 21 24 31 35 37 37 39 36 34 34 32 28 25 25 24 24 20 19
11 11 10 11 11 12 12 11 11 11 7 4 6 9 5 2 1 4 6 8 9 12 13 15 18 20 25 30 34 36 37 37 33 33 31 29 27 27 26 24 24 22 18 15
17 16 15 14 14 13 12 11 9 3 6 7 7 9 2 3 6 9 12 14 17 20 21 23 24 23 25 27 29 31 30 29 26 26 25 24 23 22 22 23 23 22 18 13
7 6 7 9 10 10 8 8 6 3 5 6 5 3 3 7 11 15 17 19 22 23 22 21 22 22 24 24 25 26 26 26 25 24 24 22 22 22 22 22 21 18 16 12
10 9 9 10 7 5 7 6 4 4 4 3 3 4 8 13 16 19 21 22 23 22 20 20 21 22 21 21 20 21 21 22 22 22 22 22 22 22 21 19 17 15 13 10
9 9 7 8 7 3 4 3 2 2 3 3 5 10 15 18 19 22 23 23 20 19 18 18 19 20 20 17 15 16 18 18 19 19 19 19 18 18 17 15 13 12 10 9
10 10 8 6 7 4 3 2 1 1 3 5 9 14 19 21 21 21 21 21 18 17 17 17 16 17 17 13 14 16 17 18 18 19 19 18 17 16 15 12 11 10 9 7
8 9 8 7 6 5 5 4 4 6 8 11 14 17 20 22 21 21 18 18 18 17 18 19 18 17 17 16 16 16 16 17 17 16 15 14 13 14 13 11 9 8 6 5
6 8 7 7 8 10 10 10 11 13 15 17 19 20 21 22 20 19 20 17 17 17 18 17 16 14 14 14 15 15 15 14 13 13 13 12 11 10 9 8 8 6 3 3
8 8 8 7 7 7 12 12 12 13 14 16 16 16 17 19 18 15 19 19 18 18 17 16 15 14 14 14 14 14 14 13 12 11 11 11 9 7 5 5 5 4 2 1
9 8 6 5 7 10 10 10 12 14 15 16 15 15 15 16 17 21 20 19 16 16 15 13 13 12 12 12 12 12 12 11 10 9 8 7 7 6 4 3 1 2 3 4
5 7 8 10 11 9 7 9 13 14 14 16 16 16 17 18 20 20 19 18 16 14 13 13 12 11 11 11 10 10 9 8 7 7 5 5 4 3 2 2 2 3 4 5
9 9 10 10 8 7 9 12 13 14 15 16 19 17 18 18 17 17 15 14 12 12 11 11 11 10 9 8 8 7 7 6 5 4 3 3 3 2 2 3 4 6 7 8